This is the latest recevied weather packets stored in our database for station/object KA3WVU. If no packets are shown the sender has not sent any weather packets the latest 10 day(s).
| Time | Temp. | Humidity | Pressure | Rain* | Wind** | Luminosity | Snow |
|---|---|---|---|---|---|---|---|
| 1777507999 | 11.11° C | 99% | 1006.6 hPa | 0 mm | - | 0 W/m² | - |
| 1777507695 | 11.11° C | 99% | 1006.6 hPa | 0 mm | - | 1 W/m² | - |
| 1777507392 | 11.11° C | 99% | 1006.6 hPa | 0 mm | - | 2 W/m² | - |
| 1777507090 | 11.11° C | 99% | 1006.7 hPa | 0 mm | - | 3 W/m² | - |
| 1777506787 | 11.11° C | 99% | 1006.5 hPa | 0 mm | - | 4 W/m² | - |
| 1777506484 | 11.11° C | 99% | 1006.4 hPa | 0 mm | - | 3 W/m² | - |
| 1777506179 | 11.11° C | 99% | 1006.3 hPa | 0 mm | - | 2 W/m² | - |
| 1777505875 | 11.67° C | 99% | 1006.3 hPa | 0 mm | - | 5 W/m² | - |
| 1777505571 | 11.67° C | 99% | 1005.9 hPa | 0 mm | - | 5 W/m² | - |
| 1777505268 | 11.67° C | 99% | 1006.3 hPa | 0 mm | - | 5 W/m² | - |
| 1777504965 | 11.67° C | 99% | 1006.2 hPa | 0 mm | - | 14 W/m² | - |
| 1777504662 | 11.67° C | 99% | 1005.9 hPa | 0 mm | - | 20 W/m² | - |
| 1777504359 | 11.67° C | 99% | 1006.2 hPa | 0 mm | - | 7 W/m² | - |
| 1777504059 | 11.67° C | 99% | 1006.3 hPa | 0 mm | - | 19 W/m² | - |
| 1777503756 | 11.67° C | 99% | 1006 hPa | 0 mm | - | 15 W/m² | - |
| 1777503453 | 11.67° C | 99% | 1005.9 hPa | 0 mm | - | 26 W/m² | - |
| 1777503148 | 11.67° C | 99% | 1005.9 hPa | 0 mm | - | 22 W/m² | - |
| 1777502846 | 11.67° C | 99% | 1005.8 hPa | 0 mm | - | 24 W/m² | - |
| 1777502543 | 11.67° C | 99% | 1005.6 hPa | 0 mm | - | 25 W/m² | - |
| 1777502240 | 11.67° C | 99% | 1005.6 hPa | 0 mm | - | 32 W/m² | - |
| 1777501937 | 11.67° C | 99% | 1005.4 hPa | 0 mm | - | 44 W/m² | - |
| 1777501634 | 11.67° C | 99% | 1005.8 hPa | 0 mm | - | 44 W/m² | - |
| 1777501331 | 11.11° C | 99% | 1005.8 hPa | 0 mm | - | 29 W/m² | - |
| 1777501029 | 11.11° C | 99% | 1005.9 hPa | 0 mm | - | 24 W/m² | - |
| 1777500726 | 11.11° C | 99% | 1006 hPa | 0 mm | - | 22 W/m² | - |
* Rain latest hour (hover to see other rain measurements)
** Current wind speed in m/s (hover to see current wind gust speed)